Shungnak AP, Shungnak, AK, AK

11:53 PM AKST on November 19, 2019 (GMT -0900)
Shungnak AP, Shungnak, AK

Weather History for PAGH - September, 2019

Change the Weather History Date:

Thursday, September 12, 2019

  Actual Average (PAFM) Record (PAFM)
Temperature  
Mean Temperature 53 °F -  
Max Temperature 62 °F 46 °F 66 °F (2014)
Min Temperature 44 °F 34 °F 25 °F (1991)
Degree Days  
Heating Degree Days 12    
Growing Degree Days 3 (Base 50)    
Moisture  
Dew Point 39 °F    
Average Humidity 62    
Maximum Humidity 82    
Minimum Humidity 42    
Precipitation  
Precipitation 0.00 in - - ()
Sea Level Pressure  
Sea Level Pressure 29.51 in    
Wind  
Wind Speed 15 mph (ESE)    
Max Wind Speed 22 mph    
Max Gust Speed 31 mph    
Visibility 10 miles    
Events      
Averages and records for this station are not official NWS values.
T = Trace of Precipitation, MM = Missing Value Source: NWS Daily Summary

Daily Weather History Graph

Daily Weather History Graph

Search for Another Location

Airport or City:

Astronomy

Sep. 12, 2019 Rise Set
Actual Time 7:37 AM AKDT 9:10 PM AKDT
Civil Twilight 6:41 AM AKDT 10:05 PM AKDT
Nautical Twilight 5:26 AM AKDT 11:19 PM AKDT
Astronomical Twilight 3:29 AM AKDT 1:09 AM AKDT
Moon 9:50 PM AKDT (9/12) 4:54 AM AKDT (9/12)
Length of Visible Light 15h 24m
Length of Day
13h 32m
Waxing Gibbous, 98% of the Moon is Illuminated
Sep 12
Waxing Gibbous
Sep 13
Full
Sep 21
Last Quarter
Sep 28
New
Oct 5
First Quarter

Hourly Weather History & Observations

Time (AKDT) Temp. Windchill Dew Point Humidity Pressure Visibility Wind Dir Wind Speed Gust Speed Precip Events Conditions
12:56 AM 48.9 °F - 43.0 °F 80% 29.62 in 10.0 mi East 12.7 mph - N/A   Clear
1:56 AM 48.9 °F - 42.1 °F 77% 29.61 in 10.0 mi East 13.8 mph - N/A   Clear
2:56 AM 48.9 °F - 41.0 °F 74% 29.59 in 10.0 mi East 17.3 mph - N/A   Clear
3:56 AM 48.9 °F - 39.9 °F 71% 29.58 in 10.0 mi East 16.1 mph - N/A   Clear
4:56 AM 45.0 °F 38.5 °F 39.9 °F 82% 29.57 in 10.0 mi East 13.8 mph - N/A   Clear
5:56 AM 45.0 °F 39.3 °F 39.0 °F 80% 29.55 in 10.0 mi East 11.5 mph - N/A   Clear
6:56 AM 45.0 °F 37.9 °F 39.0 °F 80% 29.54 in 10.0 mi ESE 16.1 mph - N/A   Clear
7:56 AM 44.1 °F 38.1 °F 37.9 °F 79% 29.53 in 10.0 mi ESE 11.5 mph - N/A   Clear
8:56 AM 46.0 °F 39.9 °F 37.9 °F 73% 29.52 in 10.0 mi ESE 13.8 mph - N/A   Clear
9:56 AM 48.9 °F - 37.9 °F 66% 29.51 in 10.0 mi ESE 15.0 mph 23.0 mph N/A   Clear
10:56 AM 52.0 °F - 39.9 °F 63% 29.51 in 10.0 mi ESE 18.4 mph 24.2 mph N/A   Clear
11:56 AM 55.9 °F - 39.0 °F 53% 29.49 in 10.0 mi ESE 19.6 mph 28.8 mph N/A   Clear
12:56 PM 57.0 °F - 39.9 °F 53% 29.49 in 10.0 mi ESE 20.7 mph 31.1 mph N/A   Clear
1:56 PM 59.0 °F - 39.9 °F 49% 29.49 in 10.0 mi ESE 21.9 mph 29.9 mph N/A   Clear
3:56 PM 62.1 °F - 39.0 °F 43% 29.47 in 10.0 mi ESE 20.7 mph 29.9 mph N/A   Clear
4:56 PM 61.0 °F - 39.0 °F 44% 29.47 in 10.0 mi SE 18.4 mph 27.6 mph N/A   Clear
5:56 PM 61.0 °F - 39.0 °F 44% 29.45 in 10.0 mi ESE 16.1 mph 24.2 mph N/A   Clear
6:56 PM 61.0 °F - 37.9 °F 42% 29.45 in 10.0 mi ESE 16.1 mph - N/A   Clear
8:56 PM 57.9 °F - 37.0 °F 46% 29.46 in 10.0 mi East 12.7 mph - N/A   Clear
9:56 PM 55.0 °F - 35.1 °F 47% 29.46 in 10.0 mi East 12.7 mph - N/A   Clear
10:56 PM 53.1 °F - 37.0 °F 55% 29.46 in 10.0 mi East 10.4 mph - N/A   Clear
11:56 PM 51.1 °F - 37.0 °F 59% 29.47 in 10.0 mi ESE 8.1 mph - N/A   Clear